This is the latest recevied weather packets stored in our database for station/object OZ1IEP-5. If no packets are shown the sender has not sent any weather packets the latest 10 day(s).
| Time | Temp. | Humidity | Pressure | Rain* | Wind** | Luminosity | Snow |
|---|---|---|---|---|---|---|---|
| 1777639206 | 18.33° C | 49% | 1026.2 hPa | 0 mm | - | 752 W/m² | - |
| 1777638608 | 18.33° C | 49% | 1026.2 hPa | 0 mm | - | 765 W/m² | - |
| 1777638005 | 18.33° C | 49% | 1026.3 hPa | 0 mm | - | 772 W/m² | - |
| 1777637406 | 18.33° C | 50% | 1026.4 hPa | 0 mm | - | 780 W/m² | - |
| 1777636808 | 18.33° C | 48% | 1026.5 hPa | 0 mm | - | 788 W/m² | - |
| 1777636205 | 17.78° C | 50% | 1026.6 hPa | 0 mm | - | 786 W/m² | - |
| 1777635605 | 17.78° C | 49% | 1026.7 hPa | 0 mm | - | 795 W/m² | - |
| 1777635008 | 17.78° C | 48% | 1026.7 hPa | 0 mm | - | 803 W/m² | - |
| 1777634406 | 17.78° C | 48% | 1026.7 hPa | 0 mm | - | 803 W/m² | - |
| 1777633806 | 17.78° C | 47% | 1026.7 hPa | 0 mm | - | 805 W/m² | - |
| 1777633208 | 17.22° C | 48% | 1026.7 hPa | 0 mm | - | 803 W/m² | - |
| 1777632606 | 17.78° C | 50% | 1026.7 hPa | 0 mm | - | 803 W/m² | - |
| 1777632006 | 17.22° C | 51% | 1026.8 hPa | 0 mm | - | 802 W/m² | - |
| 1777631408 | 17.22° C | 49% | 1026.8 hPa | 0 mm | - | 798 W/m² | - |
| 1777630806 | 17.22° C | 49% | 1026.9 hPa | 0 mm | - | 793 W/m² | - |
| 1777630206 | 16.67° C | 50% | 1027 hPa | 0 mm | - | 784 W/m² | - |
| 1777629608 | 16.67° C | 49% | 1027.1 hPa | 0 mm | - | 779 W/m² | - |
| 1777629006 | 16.67° C | 49% | 1027.2 hPa | 0 mm | - | 770 W/m² | - |
| 1777628405 | 16.11° C | 50% | 1027.2 hPa | 0 mm | - | 754 W/m² | - |
| 1777627808 | 16.11° C | 51% | 1027.2 hPa | 0 mm | - | 747 W/m² | - |
| 1777627206 | 15.56° C | 54% | 1027.3 hPa | 0 mm | - | 162 W/m² | - |
| 1777626605 | 15.56° C | 54% | 1027.3 hPa | 0 mm | - | 612 W/m² | - |
| 1777626008 | 15° C | 57% | 1027.3 hPa | 0 mm | - | 659 W/m² | - |
| 1777625406 | 15° C | 59% | 1027.2 hPa | 0 mm | - | 599 W/m² | - |
| 1777624805 | 14.44° C | 61% | 1027.2 hPa | 0 mm | - | 675 W/m² | - |
* Rain latest hour (hover to see other rain measurements)
** Current wind speed in m/s (hover to see current wind gust speed)